KGCNKBVU

Guest
Details From KGCN - GRAND CANYON NATIONAL PARK
To KBVU - BOULDER CITY MUNI
Flight Number -
Tags generated
Created
Modified
Stats Distance 133 nm / 245 km
Max Altitude 14,800 ft / 4,511 m
Waypoints 3
Social Downloads 1
Likes 0
Share VATSIM

Download

Looking for another format? Having issues loading an existing format? Contact us
Advertisement - Login to hide

Notes

Basic altitude profile: - Ascent Rate: 2500ft/min - Ascent Speed: 230kts - Cruise Altitude: 7500ft - Cruise Speed: 245kts - Descent Rate: 1500ft/min - Descent Speed: 175kts Options: - Use NATs: yes - Use PACOTS: yes - Use low airways: yes - Use high airways: yes

Route

KGCN CUNDY KBVU

ID Type Via Altitude Latitude Longitude Leg Dist Tot Dist Heading (true) Name
O KGCN APT - 0 ft / 0 m 35.95237˚ -112.14692˚ - 0 nm - GRAND CANYON NATIONAL PARK
CUNDY FIX - 14,800 ft / 4,511 m 36.06009˚ -112.99241˚ 41 nm 41 nm 279° / 279° -
O KBVU APT - 0 ft / 0 m 35.94837˚ -114.85958˚ 90 nm 132 nm 266° / 265° BOULDER CITY MUNI

Altitude Profile

Advertisement - Login to hide

KGCN

Details ICAO KGCN (GCN)
Name GRAND CANYON NATIONAL PARK
Region United States
Timezone America/Phoenix (UTC-7.0)
Stats Elevation 6,609 ft / 2,014 m (AMSL)
Location 35.952369° -112.146919°
Runways 1
Magnetic Variation 10.702° E

METAR

KGCN 250654Z AUTO 05006KT 10SM CLR 08/M09 A3026 RMK AO2 SLP167 T00781089 402671017

Decode

TAF

KGCN 250533Z 2506/2606 21006KT P6SM SKC FM251800 21016G30KT P6SM SKC FM260230 22007G12KT P6SM SKC

Decode

Departure Runways

ID Width Length Bearing (true) Bearing (mag) Surface Threshold Offset Overrun Length
03 151 ft / 46 m 9,008 ft / 2,746 m 40.55° 29.85° Asphalt 0 ft / 0 m 0 ft / 0 m
21 151 ft / 46 m 9,008 ft / 2,746 m 220.57° 209.87° Asphalt 0 ft / 0 m 0 ft / 0 m

KBVU

Details ICAO KBVU (BLD)
Name BOULDER CITY MUNI
Region United States
Timezone America/Los_Angeles (UTC-7.0)
Stats Elevation 2,201 ft / 671 m (AMSL)
Location 35.948366° -114.859580°
Runways 3
Magnetic Variation 11.511° E

METAR

KBVU 250735Z AUTO 13005KT 10SM FEW041 SCT050 SCT055 25/00 A2992 RMK AO2

Decode

TAF

Not found

Destination Runways

ID Width Length Bearing (true) Bearing (mag) Surface Threshold Offset Overrun Length
09L 60 ft / 18 m 2,197 ft / 670 m 103.75° 92.24° Asphalt 0 ft / 0 m 0 ft / 0 m
09R 75 ft / 23 m 4,792 ft / 1,461 m 103.76° 92.25° Asphalt 0 ft / 0 m 0 ft / 0 m
15 75 ft / 23 m 3,859 ft / 1,176 m 164.77° 153.26° Asphalt 0 ft / 0 m 0 ft / 0 m
27L 75 ft / 23 m 4,792 ft / 1,461 m 283.77° 272.26° Asphalt 0 ft / 0 m 0 ft / 0 m
27R 60 ft / 18 m 2,197 ft / 670 m 283.75° 272.24° Asphalt 0 ft / 0 m 0 ft / 0 m
33 75 ft / 23 m 3,859 ft / 1,176 m 344.77° 333.26° Asphalt 0 ft / 0 m 0 ft / 0 m